DW5444 Weather Reports


time (UTC)temp
F
wind
direction
speed
knots
gust
knots
rain 1hr
in
rain 24hr
in
rain mn
in
humidity
%
barometer
mb
20260904193014 60 291 1.7 6.1 0.00 0.00 0.00 51 1012.9
20260904191512 60 315 0.0 6.1 0.00 0.00 0.00 53 1013.1
20260904190016 60 28 4.3 6.1 0.00 0.00 0.00 53 1013.1
20260904184510 60 47 2.6 5.2 0.00 0.00 0.00 53 1013.1
20260904183010 60 59 0.0 3.5 0.00 0.00 0.00 51 1013.1
20260904181505 59 43 1.7 4.3 0.00 0.00 0.00 54 1013.0
20260904180003 59 161 2.6 5.2 0.00 0.00 0.00 54 1013.1
20260904174502 58 52 0.9 3.5 0.00 0.00 0.00 55 1013.1
20260904173001 58 104 1.7 6.1 0.00 0.00 0.00 56 1013.3
20260904171609 58 192 1.7 5.2 0.00 0.00 0.00 56 1013.1
20260904170056 57 146 1.7 6.1 0.00 0.00 0.00 58 1012.9
20260904164557 56 133 2.6 6.1 0.00 0.00 0.00 59 1012.8
20260904163054 56 234 1.7 4.3 0.00 0.00 0.00 58 1012.7
20260904161550 56 215 1.7 5.2 0.00 0.00 0.00 59 1012.7
20260904160050 56 249 2.6 4.3 0.00 0.00 0.00 60 1012.6
20260904154547 55 254 0.9 4.3 0.00 0.00 0.00 62 1012.6
20260904153046 55 241 2.6 4.3 0.00 0.00 0.00 61 1012.6
20260904151544 55 219 2.6 4.3 0.00 0.00 0.00 63 1012.5
20260904144537 53 114 1.7 3.5 0.00 0.00 0.00 67 1012.2
20260904143033 51 121 0.0 3.5 0.00 0.00 0.00 71 1012.0
20260904141529 49 111 2.6 4.3 0.00 0.00 0.00 72 1011.8
20260904140024 0 0.0 0.0 0.00 0.00 0.00 1011.6
20260904134538 0 0.0 0.0 0.00 0.00 0.00 1011.6
20260904133016 0 0.0 0.0 0.00 0.00 0.00 1011.4
20260904131518 0 0.0 0.0 0.00 0.00 0.00 1011.3
20260904130012 0 0.0 0.0 0.00 0.00 0.00 1011.3
20260904124503 0 0.0 0.0 0.00 0.00 0.00 1011.3
20260904123059 0 0.0 0.0 0.00 0.00 0.00 1011.3
20260904121554 0 0.0 0.0 0.00 0.00 0.00 1011.3
20260904120104 46 86 1.7 5.2 0.00 0.00 0.00 77 1011.2
20260904114554 45 126 2.6 5.2 0.00 0.00 0.00 78 1011.2
20260904113051 45 136 3.5 6.1 0.00 0.00 0.00 79 1010.9
20260904111548 45 125 1.7 4.3 0.00 0.00 0.00 78 1010.8
20260904110045 45 80 1.7 4.3 0.00 0.00 0.00 78 1010.6
20260904104543 45 81 4.3 5.2 0.00 0.00 0.00 78 1010.5
20260904103042 45 104 4.3 6.1 0.00 0.00 0.00 79 1010.6
20260904101541 45 127 2.6 4.3 0.00 0.00 0.00 79 1010.4
20260904100039 45 107 2.6 5.2 0.00 0.00 0.00 80 1010.1
20260904094543 45 134 3.5 5.2 0.00 0.00 0.00 81 1010.0
20260904093035 45 137 2.6 6.1 0.00 0.00 0.00 81 1009.9
20260904091534 46 118 4.3 5.2 0.00 0.00 0.00 78 1010.0
20260904090032 45 132 4.3 5.2 0.00 0.00 0.00 81 1009.9
20260904084531 46 132 3.5 5.2 0.00 0.04 0.00 81 1009.9
20260904083040 46 126 3.5 5.2 0.00 0.04 0.00 83 1009.7
20260904081526 45 127 2.6 4.3 0.00 0.04 0.00 84 1009.6
20260904080025 45 126 2.6 4.3 0.00 0.04 0.00 84 1009.6
20260904074525 45 132 2.6 3.5 0.00 0.08 0.00 84 1009.5
20260904073025 45 137 2.6 4.3 0.00 0.08 0.00 84 1009.4
20260904071520 45 119 2.6 3.5 0.00 0.08 0.00 84 1009.3
20260904070017 45 149 1.7 3.5 0.00 0.08 0.00 85 1009.3
20260904064514 46 142 1.7 3.5 0.00 0.08 0.08 84 1009.1
20260904063021 46 156 1.7 3.5 0.00 0.08 0.08 82 1009.1
20260904061511 47 156 1.7 4.3 0.00 0.08 0.08 82 1009.0
20260904060013 48 197 2.6 5.2 0.00 0.08 0.08 80 1009.0
20260904054510 49 227 4.3 7.0 0.00 0.11 0.08 73 1008.9
20260904053011 50 244 3.5 8.7 0.00 0.11 0.08 69 1008.9
20260904051509 48 116 0.9 6.1 0.00 0.11 0.08 70 1008.7
20260904050008 50 6 0.9 5.2 0.00 0.11 0.08 68 1008.8
20260904044508 49 136 1.7 4.3 0.00 0.15 0.08 69 1008.8
20260904043008 50 75 0.9 5.2 0.00 0.15 0.08 69 1008.6
20260904041509 50 130 3.5 5.2 0.00 0.15 0.08 69 1008.6
20260904040007 51 124 3.5 5.2 0.00 0.15 0.08 72 1008.7
20260904034505 51 132 3.5 4.3 0.00 0.25 0.08 71 1008.5
20260904033005 53 222 0.0 3.5 0.00 0.25 0.08 68 1008.2
20260904031503 53 42 2.6 3.5 0.00 0.25 0.08 67 1008.1
20260904030003 54 57 1.7 4.3 0.00 0.25 0.08 66 1008.0
20260904024508 55 52 3.5 5.2 0.00 0.28 0.08 65 1008.0
20260904023002 55 71 0.0 1.7 0.00 0.28 0.08 63 1008.1
20260904021501 56 72 3.5 7.0 0.00 0.28 0.08 63 1008.0
20260904020002 56 66 2.6 6.1 0.00 0.28 0.08 64 1008.1
20260904014615 56 48 3.5 5.2 0.00 0.30 0.08 64 1008.0
20260904013059 56 26 2.6 5.2 0.00 0.30 0.08 64 1008.0
20260904011559 56 9 2.6 6.1 0.00 0.30 0.08 63 1008.0
20260904010058 57 17 2.6 5.2 0.00 0.30 0.08 61 1008.0
20260904004557 57 312 3.5 7.8 0.00 0.33 0.08 59 1008.1
20260904003057 57 354 1.7 5.2 0.00 0.33 0.08 58 1008.1
20260904001556 58 55 2.6 6.1 0.00 0.33 0.08 57 1007.9
20260904000114 58 350 2.6 4.3 0.00 0.33 0.08 56 1008.1
20260903234555 58 335 2.6 5.2 0.00 0.34 0.08 54 1008.3
20260903233056 59 310 2.6 5.2 0.00 0.34 0.08 51 1008.4
20260903231555 60 114 0.0 2.6 0.00 0.34 0.08 48 1008.4
20260903230054 60 196 0.9 3.5 0.00 0.34 0.08 48 1008.6
20260903224610 60 181 1.7 3.5 0.00 0.34 0.08 47 1008.7
20260903223052 60 124 0.9 3.5 0.00 0.34 0.08 45 1008.8
20260903221551 60 250 0.9 4.3 0.00 0.34 0.08 47 1008.9
20260903220050 60 206 0.0 3.5 0.00 0.34 0.08 46 1009.0
20260903214607 60 205 1.7 3.5 0.00 0.34 0.08 45 1009.0
20260903213059 60 247 1.7 4.3 0.00 0.34 0.08 44 1008.9
20260903211546 60 55 0.9 6.1 0.00 0.34 0.08 45 1009.2
20260903210115 59 59 0.9 4.3 0.00 0.34 0.08 47 1009.1
20260903204549 59 175 1.7 7.8 0.00 0.34 0.08 44 1009.3
20260903203104 59 109 1.7 5.2 0.00 0.34 0.08 48 1009.4
20260903201545 59 132 1.7 7.0 0.00 0.34 0.08 49 1009.4
20260903200051 59 121 3.5 8.7 0.00 0.34 0.08 49 1009.8
20260903194539 60 159 3.5 6.1 0.00 0.34 0.08 51 1009.5